Wind_Speed
7 7 7 8 9 9 10 11 11 11 12 13 13 14 15 15 15 16 16 17 17 17 17 17 17 17 17 18 18 19 19 19 19 19 20 21 21 22 22 22 21 21 21
9 9 9 10 10 11 12 12 13 12 13 14 15 16 16 16 17 17 18 19 18 18 18 18 19 19 19 20 20 20 20 20 20 20 20 21 21 22 22 22 21 21 22
11 11 11 12 12 13 13 14 14 15 15 17 17 17 17 17 18 19 19 20 20 20 20 20 20 20 21 21 21 21 21 22 22 21 21 21 21 22 22 23 23 22 22
12 13 13 14 14 15 15 16 17 17 17 18 18 18 18 18 19 20 20 21 21 21 21 21 22 22 22 22 22 23 23 23 23 23 22 22 22 22 22 22 23 23 23
14 15 16 16 16 16 17 18 18 18 19 19 19 19 19 19 20 21 21 21 21 22 22 23 23 23 23 23 24 24 24 23 23 23 23 23 22 22 22 22 22 22 23
16 16 17 17 18 18 18 19 19 20 20 20 19 20 20 21 22 22 23 22 22 23 23 24 24 24 24 24 24 23 24 24 23 23 23 23 22 23 22 22 23 23 24
18 18 18 19 19 19 20 20 21 21 21 21 22 22 23 23 23 23 24 24 24 24 24 25 25 26 25 25 24 24 24 24 24 24 24 24 24 23 23 23 24 25 24
19 20 20 20 21 21 22 22 23 23 23 23 23 23 24 24 25 25 25 25 25 25 25 26 26 26 26 25 25 24 24 24 24 24 24 24 24 24 24 24 25 25 23
21 22 23 22 22 22 23 23 24 24 24 24 25 25 26 25 26 26 26 26 26 26 26 26 26 26 26 26 26 26 26 25 25 24 25 24 24 25 25 25 25 24 24
23 23 24 25 24 24 24 25 25 26 26 26 26 26 26 27 27 27 26 26 26 26 26 26 27 27 27 27 26 27 27 26 26 25 25 25 25 25 25 25 25 25 24
24 25 25 26 26 26 26 25 25 26 26 27 27 27 28 28 28 27 27 28 27 27 26 26 27 27 27 27 27 27 27 27 26 26 26 25 25 25 25 26 25 25 26
27 27 27 27 28 29 28 27 27 27 28 28 29 29 30 30 29 28 29 28 27 27 27 26 26 27 27 27 27 27 28 27 27 27 27 26 26 26 26 26 26 26 27
28 28 29 29 30 29 29 29 29 29 30 30 31 31 31 30 30 29 29 28 27 27 27 27 27 27 27 27 27 27 27 27 27 27 27 27 26 26 26 27 27 27 28
30 30 31 31 31 31 32 32 32 32 32 31 32 32 31 31 30 30 30 28 28 28 27 27 27 27 27 28 27 27 27 27 27 27 27 27 27 27 27 27 28 28 28
31 32 32 33 33 33 33 33 34 34 34 34 33 33 33 32 31 30 29 28 28 28 28 27 27 28 28 28 27 27 27 28 28 28 27 27 27 27 27 27 27 27 27
32 32 32 33 34 35 34 35 35 35 35 34 34 33 32 32 31 30 29 29 28 28 28 27 28 28 27 27 27 27 27 27 28 28 27 27 27 27 27 27 27 26 26
32 33 33 33 34 35 36 36 35 35 35 34 33 32 31 31 31 30 29 28 28 28 28 27 27 27 27 27 27 27 27 27 28 28 27 27 28 28 28 27 26 26 26
33 33 34 34 35 35 35 35 35 34 34 33 33 32 31 30 30 30 29 28 27 26 26 26 26 26 26 26 27 27 27 27 27 28 27 27 28 28 27 27 26 26 26
33 34 34 35 35 35 35 35 34 34 34 32 31 30 30 30 30 29 28 27 26 26 26 26 26 26 26 26 27 27 27 28 27 27 27 27 26 26 26 27 26 26 26
34 34 34 35 35 36 36 35 34 33 31 29 29 29 29 29 29 28 28 27 27 27 27 27 26 27 27 26 27 27 28 28 28 28 28 27 26 26 26 26 25 25 25
34 34 34 35 35 35 35 34 33 31 30 28 27 27 27 27 27 27 27 27 27 27 27 27 27 27 27 27 27 27 28 28 29 28 29 28 27 27 27 26 26 25 25
35 35 35 34 34 34 34 32 31 30 29 28 27 26 26 26 26 26 26 26 26 26 27 27 27 27 26 27 27 28 28 29 29 29 29 29 27 27 26 25 25 26 25
35 35 34 34 33 33 32 30 30 30 29 28 27 26 26 26 26 26 26 27 27 27 27 28 28 28 28 27 27 28 28 29 29 29 29 29 27 27 26 26 25 25 25
34 33 33 32 32 31 30 29 29 29 28 27 26 26 25 26 26 26 26 26 26 26 27 28 28 28 28 27 27 28 28 29 29 29 28 27 26 26 26 26 26 25 25
32 32 31 31 31 30 30 29 28 27 27 26 26 26 25 25 25 25 25 25 26 27 27 28 28 27 28 27 27 27 27 28 28 28 27 26 26 25 26 25 25 25 25
31 31 31 30 30 29 28 28 27 27 25 24 25 25 25 25 25 26 26 26 27 28 28 28 27 27 28 28 27 27 27 27 27 27 26 26 25 25 25 24 24 23 23
Wind_Direction
302 303 305 310 314 312 316 316 315 314 314 314 315 317 317 317 318 318 317 316 314 314 313 312 310 308 308 308 307 306 305 304 303 301 301 301 302 301 300 300 298 295 293
291 296 301 303 306 307 310 312 312 312 309 308 309 311 311 311 311 314 315 314 312 313 314 313 312 309 308 307 307 307 306 306 305 303 301 302 301 300 301 302 300 297 294
287 289 296 300 302 303 306 307 307 307 307 307 306 307 307 306 307 310 311 311 310 310 312 313 312 311 309 306 305 305 304 305 305 303 301 301 302 300 300 300 301 298 295
286 287 292 295 297 300 304 305 306 306 306 306 305 304 303 305 306 309 309 309 308 308 309 311 311 310 309 306 304 304 303 304 303 302 301 301 302 301 300 300 300 298 297
285 287 291 293 295 298 300 301 301 303 305 305 306 305 306 306 305 305 307 307 307 307 307 308 308 307 307 306 304 303 304 304 302 302 302 301 301 302 301 299 299 299 299
284 288 290 293 295 296 298 298 299 300 302 303 303 304 303 303 303 303 303 304 305 305 305 306 306 305 306 307 306 304 304 304 303 302 304 303 303 303 301 299 300 298 299
284 288 291 291 292 294 296 296 297 297 298 299 301 303 301 300 299 300 301 301 303 304 304 304 304 304 305 305 305 304 304 304 303 303 302 302 302 302 300 300 301 301 299
283 285 287 287 288 290 292 293 294 294 295 296 298 300 300 300 300 299 299 300 301 302 303 303 303 304 305 303 302 302 302 303 303 302 302 302 302 301 300 300 301 299 297
282 284 286 287 288 289 290 291 293 295 295 296 297 297 299 299 299 299 299 298 299 301 301 301 302 303 304 304 303 303 303 303 301 300 300 301 302 301 301 301 300 298 296
282 284 285 286 286 287 288 290 292 294 295 296 297 299 300 300 299 298 298 299 299 300 299 299 299 300 301 302 302 303 303 302 301 300 300 299 299 300 300 300 300 299 297
282 283 284 284 285 285 286 289 290 293 294 295 296 297 298 298 298 298 298 299 299 300 299 300 301 301 302 302 303 304 303 301 299 298 298 297 297 297 298 299 299 299 299
282 282 282 282 283 285 286 288 289 291 292 294 295 296 297 297 295 295 296 297 297 297 299 300 301 302 302 302 303 304 304 302 300 299 297 296 296 297 297 297 297 297 297
281 283 282 283 283 286 286 288 289 290 291 293 294 295 295 294 293 293 294 294 293 295 297 299 300 301 302 302 303 304 303 302 301 299 297 296 296 297 296 295 295 295 296
280 283 282 282 284 284 286 287 288 290 291 291 292 293 293 291 291 291 292 292 293 294 296 298 298 299 301 303 303 303 302 302 301 301 299 298 298 298 297 296 295 295 295
281 282 283 282 283 284 284 285 287 290 290 289 290 290 291 291 290 290 290 290 290 292 294 296 298 299 300 302 302 301 301 302 302 301 299 298 298 298 297 297 297 297 297
281 282 283 284 285 285 284 285 288 289 290 288 288 288 290 291 290 290 289 288 289 291 293 294 295 297 299 299 300 301 302 302 302 301 300 299 298 298 298 298 298 298 297
281 282 284 286 286 286 286 287 287 288 289 288 287 288 290 290 290 290 289 288 288 290 292 293 293 294 296 298 300 301 302 302 303 303 301 299 298 298 297 297 297 297 297
280 282 284 285 287 288 288 286 286 287 288 287 286 287 288 288 290 289 288 289 289 290 291 293 294 295 297 297 298 300 301 302 302 303 302 300 298 297 297 297 297 298 298
281 283 284 285 286 288 288 286 286 286 286 285 285 286 287 287 288 288 287 287 288 288 289 290 293 295 296 297 297 299 301 302 303 303 304 302 300 299 298 298 298 298 298
282 284 285 285 286 287 288 287 286 286 287 287 287 287 286 286 287 287 287 287 287 287 286 288 291 293 295 296 297 298 301 302 302 302 303 303 300 300 300 300 298 299 300
281 283 285 285 286 287 286 285 284 283 284 285 286 288 287 286 287 287 288 287 287 287 287 288 290 293 295 296 298 299 300 301 302 303 303 304 301 300 299 298 298 298 300
281 283 285 285 286 287 285 284 282 282 283 283 284 284 285 286 287 288 288 288 287 287 287 287 289 291 293 295 297 298 299 299 300 301 303 303 301 300 299 297 296 296 297
281 282 283 283 284 285 285 284 283 282 282 283 283 282 283 285 286 287 289 288 286 286 287 287 289 290 291 294 296 297 298 299 300 300 301 302 300 299 297 297 296 295 296
280 281 282 282 283 283 283 282 282 281 281 282 282 282 283 284 285 286 287 287 287 286 287 289 290 290 291 293 294 296 297 298 299 301 301 301 299 297 296 296 296 295 295
280 280 280 281 281 281 280 280 281 281 281 281 281 282 282 284 285 285 286 286 287 288 289 290 291 291 292 293 294 295 297 298 298 299 300 300 300 299 297 295 294 294 293
278 279 280 281 280 280 279 279 279 280 280 279 280 280 281 282 283 284 285 286 287 288 289 289 290 292 293 294 294 294 296 297 297 297 298 298 299 299 299 298 296 295 295
Height
5891 5891 5890 5889 5888 5887 5886 5885 5883 5882 5881 5879 5877 5876 5874 5872 5870 5868 5865 5863 5861 5858 5856 5854 5852 5849 5847 5845 5842 5840 5838 5836 5833 5831 5828 5827 5825 5823 5821 5819 5817 5815 5813
5889 5889 5888 5887 5886 5885 5883 5882 5881 5879 5878 5876 5874 5873 5871 5869 5867 5864 5862 5860 5857 5855 5852 5850 5848 5845 5843 5840 5838 5835 5833 5831 5828 5826 5824 5821 5819 5818 5815 5813 5811 5809 5807
5887 5886 5885 5884 5883 5882 5880 5879 5878 5876 5874 5873 5871 5869 5867 5865 5862 5860 5858 5855 5853 5851 5848 5846 5843 5841 5838 5835 5833 5830 5828 5825 5823 5821 5818 5816 5814 5812 5810 5808 5805 5803 5800
5884 5883 5882 5881 5880 5878 5877 5876 5874 5872 5870 5869 5867 5864 5862 5860 5858 5856 5853 5851 5848 5846 5843 5841 5838 5835 5833 5830 5827 5825 5822 5820 5817 5815 5813 5810 5808 5806 5804 5802 5800 5797 5795
5880 5880 5879 5877 5876 5875 5873 5872 5870 5868 5866 5864 5862 5860 5858 5855 5853 5851 5848 5846 5843 5841 5838 5835 5832 5830 5827 5824 5821 5819 5816 5814 5811 5809 5807 5805 5803 5800 5798 5796 5794 5791 5789
5876 5875 5874 5873 5872 5870 5869 5867 5866 5864 5862 5860 5858 5855 5853 5851 5848 5846 5843 5840 5838 5835 5832 5829 5827 5824 5821 5818 5815 5813 5810 5808 5806 5803 5801 5799 5797 5794 5792 5789 5787 5785 5783
5871 5870 5869 5868 5867 5866 5864 5863 5861 5859 5857 5855 5852 5850 5848 5845 5843 5840 5837 5835 5832 5830 5827 5824 5821 5818 5815 5812 5810 5807 5804 5802 5800 5797 5795 5793 5790 5788 5786 5783 5780 5777 5775
5866 5865 5863 5862 5861 5860 5859 5857 5855 5854 5851 5849 5847 5844 5842 5839 5837 5834 5831 5829 5826 5824 5821 5818 5815 5812 5809 5806 5804 5801 5798 5796 5793 5791 5788 5786 5783 5781 5778 5776 5773 5771 5769
5860 5859 5858 5856 5855 5854 5853 5851 5849 5847 5845 5843 5841 5838 5835 5833 5830 5828 5825 5822 5820 5817 5815 5812 5809 5806 5803 5800 5797 5795 5792 5789 5786 5784 5781 5779 5777 5774 5772 5769 5767 5765 5762
5854 5852 5851 5850 5849 5847 5846 5844 5842 5840 5838 5836 5834 5831 5829 5826 5824 5821 5818 5816 5813 5810 5808 5805 5802 5799 5796 5793 5791 5788 5785 5783 5780 5777 5775 5772 5770 5767 5765 5762 5760 5757 5755
5847 5845 5844 5843 5841 5840 5839 5837 5835 5833 5831 5829 5827 5824 5822 5819 5817 5814 5811 5809 5806 5804 5801 5798 5795 5792 5789 5786 5784 5781 5778 5775 5773 5770 5768 5765 5763 5761 5758 5756 5753 5751 5748
5839 5838 5837 5835 5834 5832 5831 5829 5827 5825 5823 5821 5819 5817 5814 5812 5809 5807 5804 5801 5799 5797 5794 5791 5788 5785 5782 5779 5776 5774 5771 5768 5765 5763 5761 5759 5756 5754 5751 5749 5746 5744 5741
5831 5830 5828 5827 5826 5825 5823 5821 5820 5817 5815 5813 5811 5809 5806 5804 5801 5799 5796 5794 5791 5789 5787 5784 5781 5778 5775 5772 5770 5767 5764 5761 5758 5756 5753 5751 5749 5746 5744 5742 5739 5737 5734
5822 5821 5820 5819 5818 5816 5815 5813 5811 5809 5807 5805 5802 5800 5798 5795 5793 5791 5788 5786 5784 5781 5779 5777 5774 5771 5768 5765 5762 5759 5756 5754 5751 5748 5746 5743 5741 5739 5736 5734 5732 5729 5726
5814 5813 5811 5810 5809 5807 5806 5804 5802 5800 5798 5796 5794 5791 5789 5787 5784 5782 5780 5778 5776 5774 5771 5769 5767 5764 5761 5758 5755 5752 5749 5746 5744 5741 5738 5736 5734 5731 5729 5726 5724 5721 5719
5805 5804 5802 5801 5799 5798 5796 5794 5792 5790 5788 5785 5783 5781 5779 5778 5775 5773 5771 5769 5767 5766 5763 5761 5759 5756 5754 5751 5748 5745 5742 5739 5736 5733 5731 5728 5726 5724 5721 5719 5716 5713 5711
5796 5795 5793 5792 5790 5788 5786 5785 5783 5781 5778 5776 5774 5772 5770 5769 5767 5765 5763 5761 5759 5758 5756 5753 5751 5749 5746 5743 5741 5738 5735 5732 5729 5726 5723 5721 5719 5716 5714 5711 5708 5706 5703
5787 5786 5784 5782 5781 5779 5776 5775 5773 5771 5769 5767 5765 5763 5762 5760 5759 5757 5754 5753 5751 5750 5748 5746 5744 5741 5739 5736 5733 5731 5728 5725 5722 5719 5716 5714 5711 5708 5706 5703 5701 5698 5696
5777 5776 5774 5773 5771 5769 5767 5765 5763 5761 5760 5758 5756 5755 5753 5752 5750 5748 5746 5745 5744 5742 5740 5738 5736 5734 5731 5729 5727 5724 5721 5718 5715 5712 5709 5706 5704 5701 5698 5696 5693 5690 5688
5767 5766 5764 5762 5761 5759 5757 5755 5754 5752 5750 5749 5747 5746 5745 5743 5742 5740 5738 5737 5736 5734 5733 5731 5729 5726 5724 5722 5719 5717 5714 5711 5708 5706 5703 5700 5697 5694 5691 5688 5686 5683 5681
5757 5756 5754 5753 5751 5749 5747 5746 5744 5743 5742 5740 5739 5738 5736 5735 5734 5733 5731 5729 5728 5726 5725 5723 5721 5719 5717 5714 5712 5709 5707 5704 5701 5699 5696 5693 5690 5687 5684 5682 5679 5676 5674
5747 5746 5744 5743 5741 5739 5737 5736 5734 5733 5732 5731 5730 5729 5728 5727 5726 5725 5723 5722 5720 5719 5717 5715 5713 5711 5709 5707 5705 5702 5699 5697 5694 5691 5689 5686 5683 5680 5677 5675 5672 5669 5667
5736 5735 5734 5732 5731 5729 5728 5726 5725 5724 5723 5723 5722 5721 5720 5719 5718 5716 5715 5714 5712 5711 5709 5707 5705 5704 5701 5699 5697 5694 5692 5689 5686 5684 5681 5678 5675 5672 5670 5667 5665 5663 5660
5725 5724 5723 5722 5721 5720 5718 5717 5716 5715 5715 5714 5713 5713 5712 5711 5710 5709 5707 5706 5704 5703 5701 5699 5697 5696 5693 5691 5689 5687 5684 5681 5679 5676 5673 5670 5667 5665 5663 5660 5658 5656 5653
5714 5714 5713 5712 5711 5710 5709 5708 5707 5707 5706 5705 5705 5704 5704 5703 5702 5701 5700 5698 5697 5695 5693 5691 5689 5687 5685 5683 5681 5679 5676 5674 5671 5668 5666 5663 5660 5657 5655 5653 5651 5648 5646
5704 5704 5703 5702 5701 5700 5699 5699 5699 5698 5697 5697 5697 5696 5696 5695 5694 5693 5692 5690 5689 5687 5685 5683 5682 5680 5678 5676 5673 5671 5669 5666 5663 5660 5658 5656 5653 5651 5648 5646 5644 5641 5639